Location: Newark
(1.4667°N, 173.0333°E)
Time: 13:30:26
(UTC+00:00)

ISS - Visible Passes

Search period start: 18 March 2019 00:00
Search period end: 28 March 2019 00:00
Orbit: 406 x 411 km, 51.6° (Epoch: 18 March)

Date Brightness Start Highest point End Pass type
(mag) Time Alt. Az. Time Alt. Az. Time Alt. Az.
18 Mar -0.8 07:50:48 10° W 07:52:45 15° NW 07:54:41 10° NNW visible
18 Mar -0.8 17:48:24 10° NNE 17:50:12 14° NE 17:51:59 10° E visible
19 Mar -2.2 06:58:42 10° WSW 07:01:47 36° NW 07:04:50 10° NNE visible
20 Mar -3.3 17:41:24 10° NNW 17:44:38 59° NE 17:47:52 10° SE visible
21 Mar -1.5 16:53:17 21° NE 16:53:39 21° NE 16:56:14 10° ESE visible
22 Mar -2.8 17:38:35 26° WSW 17:39:00 27° SW 17:41:50 10° S visible
23 Mar -0.9 16:50:57 12° SSE 16:50:57 12° SSE 16:51:16 10° SSE visible
